Welcome to the New NWS' Forecast!
Most changes are behind the scenes, but click here for differences you might notice.
Latest weather observations around

Duluth International Airport (KDLH)

Using English Units (Switch to International System of Units)
Date/ Time (CST) Wind (mph) Vis. (mi) Weather Sky Cond. Temp (°F) Rel. Humidity Wind Chill (°F) Heat Index (°F) Pressure Precip. (in)
Air Dwpt 6 hour Altimeter (inHg) Sea level (inHg) 1 hr 3 hr 6 hr
Max Min
Dec 15 08:55 WNW 9 7 Light Snow OVC019 9 3     76% -4   29.81 29.91 0 0  
Dec 15 07:55 WNW 9 4 Light Snow OVC020 10 5     80% -3   29.81 29.9 0    
Dec 15 06:55 NNW 6 3 Light Snow and Fog/Mist OVC022 10 6     84% 0   29.81 29.9 0    
Dec 15 06:51 NNW 6 3 Light Snow and Fog/Mist OVC022 10 7     85% 1   29.81   0    
Dec 15 06:27 NW 8 2 Light Snow and Fog/Mist OVC022 10 6     84% -2   29.82   0    
Dec 15 05:55 NW 9 9 Light Snow OVC020 11 7     84% -2   29.82 29.91 0   0
Dec 15 04:55 NW 11 6 Light Snow OVC023 11 6     80% -3   29.83 29.92 0    
Dec 15 03:55 NW 11 4 Light Snow and Fog/Mist OVC021 11 8     88% -3   29.83 29.92 0    
Dec 15 02:55 NW 11 7 Light Snow FEW016 OVC025 11 8     88% -3   29.83 29.93 0 0  
Dec 15 01:55 WNW 9 9 Light Snow OVC029 12 7     80% 0   29.83 29.92 0    
Dec 15 01:33 WNW 10 9 Light Snow OVC029 12 7     80% -1   29.83   0    
Dec 15 00:55 WNW 9 9 Light Snow OVC032 11 7     84% -2   29.83 29.93 0    
Dec 14 23:55 NW 10 8 Light Snow FEW016 OVC046 11 8     88% -3   29.85 29.95 0   0
Dec 14 22:55 NW 10 9 Light Snow OVC048 12 8     84% -1   29.86 29.95 0    
Dec 14 21:55 NW 10 4 Light Snow and Fog/Mist BKN048 OVC070 12 8     84% -1   29.87 29.96 0    
Dec 14 21:03 NW 11 5 Light Snow SCT024 OVC049 13 8     81% -1   29.88   0    
Dec 14 20:55 NW 13 9 Light Snow BKN024 OVC049 13 8     81% -2   29.88 29.97 0 0  
Dec 14 20:39 NW 16 9 Light Snow BKN024 OVC047 13 8     81% -3   29.88   0    
Dec 14 19:55 WNW 11 9 Light Snow FEW022 SCT049 OVC060 14 8     77% 1   29.89 29.98 0    
Dec 14 19:52 WNW 11 9 Light Snow SCT022 BKN049 OVC060 14 9     79% 1   29.89   0    
Dec 14 18:55 NW 13 9 Light Snow OVC023 15 9     76% 1   29.9 29.99 0    
Dec 14 17:55 WNW 10 5 Light Snow and Fog/Mist OVC025 15 12     87% 3   29.91 30 0   0
Dec 14 16:55 W 7 4 Light Snow OVC027 16 11     80% 6   29.91 30.01 0    
Dec 14 15:55 WNW 7 9 Light Snow OVC021 16 10     77% 6   29.91 30.01 0    
Dec 14 14:55 W 11 9 Light Snow SCT018 BKN027 OVC034 16 10     77% 3   29.9 30 0 0  
Dec 14 14:31 W 10 9 Light Snow SCT018 OVC034 16 10     77% 4   29.9   0    
Dec 14 13:55 NW 9 9 Light Snow OVC017 16 10     77% 4   29.91 30 0    
Dec 14 12:55 WNW 10 3 Light Snow BKN016 BKN042 OVC050 16 10     77% 4   29.92 30.03 0    
Dec 14 12:07 WNW 11 3 Light Snow SCT016 OVC049 16 10     77% 3   29.93   0    
Dec 14 12:04 W 11 3 Light Snow BKN014 BKN044 OVC055 16 10     77% 3   29.93   0    
Dec 14 11:55 W 9 2.5 Light Snow and Fog/Mist OVC014 15 11     83% 3   29.93 30.03 0   0
Dec 14 10:55 WNW 8 2.5 Light Snow and Fog/Mist OVC013 15 11     83% 4   29.95 30.04 0    
Dec 14 10:27 W 8 2 Light Snow and Fog/Mist OVC011 15 12     87% 4   29.95   0    
Dec 14 10:11 WNW 7 2.5 Light Snow and Fog/Mist OVC009 14 12     92% 4   29.95   0    
Dec 14 09:55 WNW 8 7 Light Snow OVC009 14 12     92% 3   29.95 30.04 0    
Dec 14 08:55 WNW 7 9 Light Snow OVC007 14 12     92% 4   29.94 30.04 0 0  
Dec 14 07:55 WNW 9 9 Light Snow OVC009 14 12     92% 2   29.93 30.02 0    
Dec 14 06:55 WNW 6 10 Cloudy OVC008 15 13     91% 6   29.92 30.01      
Dec 14 05:55 WNW 5 10 Cloudy OVC009 14 12     92% 6   29.91 30      
Dec 14 04:55 WNW 5 10 Cloudy OVC009 13 10     88% 5   29.91 30      
Dec 14 04:05 NW 5 10 Cloudy OVC010 11 9     92% 3   29.92        
Dec 14 03:55 NW 5 10 Mostly Cloudy BKN009 11 9     92% 3   29.91 30      
Dec 14 02:55 NW 6 10 Cloudy OVC009 9 7     91% -1   29.92 30.01      
Dec 14 02:38 NW 6 10 Cloudy OVC009 7 5     91% -3   29.91        
Dec 14 01:55 NNW 6 10 Mostly Cloudy BKN010 8 6     91% -2   29.91 30.01      
Dec 14 00:55 WSW 3 10 Mostly Cloudy BKN011 4 3     96% -3   29.9 29.99      
Dec 14 00:19 Calm 10 Partly Cloudy SCT009 9 8     96%     29.91        
Dec 14 00:04 NNW 3 10 Mostly Cloudy BKN009 9 8     96% 3   29.91        
Dec 13 23:55 Calm 10 Cloudy OVC011 8 6     91%     29.9 30     0
Dec 13 23:45 Calm 10 Mostly Cloudy BKN011 10 6     84%     29.91        
Dec 13 22:55 NW 5 10 Mostly Clear FEW011 11 9     92% 3   29.88 29.97      
Dec 13 21:55 NNW 7 10 Clear CLR 12 10     92% 1   29.88 29.97      
Dec 13 21:03 NNW 6 10 Partly Cloudy SCT009 13 11     92% 4   29.88        
Dec 13 20:55 N 7 10 Partly Cloudy SCT010 13 11     92% 3   29.87 29.96   0  
Dec 13 19:55 N 11 10 Cloudy OVC011 16 13     87% 3   29.85 29.94 0    
Dec 13 19:30 N 9 9 Light Snow BKN013 OVC036 16 13     87% 4   29.84   0    
Dec 13 18:55 N 10 9 Light Snow OVC036 17 13     83% 5   29.84 29.93 0    
Dec 13 17:55 N 8 9 Light Snow BKN041 18 15     88% 8   29.8 29.88 0   0
Dec 13 17:02 N 9 3 Light Snow and Fog/Mist FEW023 OVC042 20 16     84% 9   29.76   0    
Dec 13 16:55 N 8 2 Light Snow and Fog/Mist SCT023 SCT032 OVC042 20 17     88% 10   29.75 29.83 0    
Dec 13 16:50 N 7 2 Light Snow and Fog/Mist SCT023 BKN032 OVC041 19 18     93% 10   29.74   0    
Dec 13 16:36 N 9 1.5 Light Snow and Fog/Mist OVC023 20 17     88% 9   29.74   0    
Dec 13 16:23 N 10 3 Light Snow and Fog/Mist FEW016 BKN023 OVC029 20 17     88% 9   29.73   0    
Dec 13 16:12 N 9 2.5 Light Snow and Fog/Mist SCT013 BKN019 OVC026 20 17     88% 9   29.72   0    
Dec 13 16:02 N 9 2.5 Light Snow and Fog/Mist BKN013 BKN021 OVC029 21 17     84% 11   29.71   0    
Dec 13 15:55 N 10 2.5 Light Snow and Fog/Mist FEW013 BKN027 BKN038 21 17     84% 10   29.71 29.79 0    
Dec 13 15:16 NNE 7 2.5 Light Snow and Fog/Mist BKN023 22 18     84% 13   29.68   0    
Dec 13 14:55 NNE 8 1.5 Light Snow and Fog/Mist FEW015 OVC021 22 18     84% 13   29.66 29.75 0 0  
Dec 13 14:12 NNE 13 1.5 Light Snow and Fog/Mist FEW014 BKN022 OVC030 22 19     88% 10   29.64   0    
Dec 13 13:55 ENE 8 0.75 Light Snow and Fog/Mist FEW013 OVC023 22 19     88% 13   29.63 29.7 0    
Dec 13 13:37 ENE 17 1 Light Snow FEW015 SCT019 OVC025 22 17     81% 8   29.62   0    
Dec 13 13:24 ENE 13 0.75 Light Snow and Fog/Mist SCT015 BKN021 OVC028 22 18     84% 10   29.61   0    
Dec 13 12:55 NE 10 1.25 Light Snow and Fog/Mist BKN016 OVC023 22 19     88% 11   29.59 29.67 0    
Dec 13 12:41 NE 13 1.25 Light Snow and Fog/Mist SCT014 OVC023 22 19     88% 10   29.58   0    
Dec 13 11:55 ENE 14 1.5 Light Snow and Fog/Mist BKN014 BKN029 OVC044 21 18     88% 8   29.56 29.65 0   0
Dec 13 11:10 NNE 13 1.5 Light Snow and Fog/Mist OVC014 21 18     88% 9   29.55   0    
Dec 13 10:55 NE 14 2.5 Light Snow and Fog/Mist OVC012 21 18     88% 8   29.54 29.63 0    
Dec 13 10:20 NE 13 8 Light Snow OVC012 21 18     88% 9   29.53   0    
Dec 13 09:55 NNE 8 8 Light Snow OVC007 20 18     92% 10   29.51 29.59 0    
Dec 13 09:06 NE 7 3 Light Snow and Fog/Mist BKN008 OVC012 20 18     92% 11   29.48   0    
Dec 13 08:55 NE 7 2 Light Snow and Fog/Mist OVC010 20 18     92% 11   29.47 29.55 0 0  
Dec 13 08:51 NE 8 2 Light Snow and Fog/Mist OVC010 19 18     93% 9   29.47   0    
Dec 13 08:22 ENE 9 1 Light Snow and Fog/Mist OVC007 20 18     92% 9   29.45   0    
Dec 13 07:55 ENE 8 3 Light Snow and Fog/Mist OVC007 19 18     95% 9   29.45 29.54 0    
Dec 13 06:25 E 8 0.75 Light Snow and Fog/Mist BKN008 OVC029 18 17     96% 8   29.43   0    
Dec 13 06:06 E 13 0.75 Light Snow and Fog/Mist FEW009 SCT016 OVC027 18 16     92% 5   29.4   0    
Dec 13 05:09 ESE 14 0.75 Light Snow VV013 17 15     92% 3   29.39   0    
Dec 13 04:55 ESE 14 1 Light Snow BKN015 OVC022 16 15     96% 2   29.4 29.49 0    
Dec 13 04:02 ESE 11 1 Light Snow OVC019 16 14     92% 3   29.42   0    
Dec 13 03:55 E 13 1 Light Snow BKN013 OVC018 16 14     92% 2   29.42 29.51 0    
Dec 13 03:42 ESE 11 1 Light Snow BKN013 OVC018 16 14     92% 3   29.43   0    
Dec 13 03:22 ESE 15 0.75 Light Snow SCT008 OVC014 16 14     92% 1   29.43   0    
Dec 13 03:10 ESE 11 0.75 Light Snow BKN008 OVC012 15 14     95% 2   29.45   0    
Dec 13 03:03 ESE 11 1 Light Snow OVC008 15 14     95% 2   29.46   0    
Dec 13 02:55 SE 14 2 Light Snow OVC008 15 14     95% 0   29.46 29.54 0 0  
Dec 13 02:18 ESE 10 3 Cloudy OVC009 15 14     95% 3   29.47   0    
Dec 13 01:55 ESE 14 2 Light Snow OVC007 15 13     91% 0   29.46 29.55 0    
Dec 13 00:55 SE 11 10 Cloudy OVC006 14 13     95% 1   29.52 29.62      
Dec 12 23:55 ESE 13 10 Cloudy OVC009 13 12     96% -2   29.57 29.67     0
Dec 12 22:55 SE 10 10 Cloudy OVC007 12 10     92% -1   29.61 29.71 0    
Dec 12 21:55 SE 10 9 Light Snow OVC008 11 9     92% -3   29.66 29.77 0    
Dec 12 21:03 SE 9 10 Light Snow OVC008 11 9     92% -2   29.71   0    
Dec 12 20:55 SSE 8 10 Cloudy OVC010 11 9     92% -1   29.72 29.83 0 0  
Dec 12 19:55 S 8 3 Light Snow and Fog/Mist BKN014 OVC022 11 9     92% -1   29.76 29.87 0    
Dec 12 19:44 SSE 9 3 Light Snow and Fog/Mist SCT016 OVC022 10 8     91% -3   29.76   0    
Dec 12 19:11 SSE 9 2 Light Snow and Fog/Mist BKN026 OVC031 11 8     88% -2   29.78   0    
Dec 12 18:55 SSE 9 2 Light Snow and Fog/Mist OVC031 11 8     88% -2   29.79 29.91 0    
Dec 12 18:45 S 9 2.5 Light Snow and Fog/Mist OVC031 11 8     88% -2   29.81   0    
Dec 12 18:15 S 8 3 Light Snow and Fog/Mist OVC029 11 8     88% -1   29.81   0    
Dec 12 17:50 SSE 6 3 Light Snow and Fog/Mist OVC033 10 9     92% 1   29.82   0    
Dec 12 17:38 S 10 1.75 Light Snow and Fog/Mist OVC033 11 8     88% -3   29.82   0    
Dec 12 16:55 S 7 3 Light Snow and Fog/Mist OVC037 10 7     87% -1   29.84 29.95 0    
Dec 12 16:50 S 7 3 Light Snow and Fog/Mist OVC039 10 7     85% 0   29.84   0    
Dec 12 15:55 SSE 6 1.25 Light Snow BKN037 OVC060 11 6     80% 1   29.86 29.97 0    
Dec 12 15:50 S 6 1.75 Light Snow OVC041 10 7     85% 1   29.87   0    
Dec 12 13:55 Calm 10 Cloudy OVC060 11 4     73%     29.93 30.03      
Dec 12 12:55 NNW 11 10 Cloudy OVC055 10 3     73% -4   29.96 30.07      
Dec 12 10:55 NW 11 10 Cloudy OVC075 5 0     79% -11   30.05 30.16      
Dec 12 09:55 NW 5 10 Cloudy OVC080 2 -1     87% -8   30.06 30.18      
Dec 12 08:55 WNW 9 10 Cloudy OVC090 1 -2     87% -14   30.08 30.19      
Jun 11 10:55   4 Rain and Fog/Mist OVC095 59 57     93%     29.74   0    
Jun 11 06:55 Calm 10 Partly Cloudy SCT120 61 57     87%     29.77 29.76      
Notice The following observation data may not be complete
Jun 10 05:21   10 Mostly Cloudy SCT008 SCT042 BKN075   60      %     29.51   1    
Jun 08 23:55 ENE 5 10 Mostly Clear FEW100 57 53     87%     29.88 29.88      
Jun 08 03:55 Calm 10 Mostly Clear FEW120 56 52     87%     29.9 29.9      
Jun 07 21:24 ESE 7 10 Thunderstorms SCT050 BKN080 BKN120 66 46     48%     29.97        
Jun 07 13:55 S 10 10 Mostly Clear FEW120 79 51     38%   78 30.05 30.05      
Jun 06 01:55 Calm 10 Clear CLR 45 39     80%     30.12 30.14      
Jun 05 17:55 E 13 10 Clear CLR 68 46     45%     30.06 30.07      
Jun 05 14:55 E 13 10 Mostly Clear FEW045 69 49     49%     30.07 30.08